Regional Weather Roundup
Issued by NWS

Home | Current Version | Previous Version | Text Only | Print | Product List | Glossary On
Versions: 1 2 3 4 5 6 7 8 9 10 11 12 13 14 15 16 17 18 19 20 21 22 23 24 25 26 27 28 29 30 31 32 33 34 35 36 37 38 39 40 41 42 43 44 45 46 47 48 49 50
000
ASUS45 KCYS 041210
RWRWY

WYOMING REGIONAL WEATHER ROUNDUP
NATIONAL WEATHER SERVICE CHEYENNE WY
600 AM MDT WED MAY 04 2016

NOTE:  "FAIR" INDICATES FEW OR NO CLOUDS BELOW 12,000 FEET
WITH NO SIGNIFICANT WEATHER AND/OR OBSTRUCTIONS TO VISIBILITY.

WYZ001-041300-
YELLOWSTONE NATIONAL PARK

CITY           SKY/WX    TMP DP  RH WIND       PRES   REMARKS
LK YELLOWSTONE   N/A     26  22  84 CALM      30.33F
6HR MIN TEMP:  26; 6HR MAX TEMP:  31;

W YELLOWSTONE  NOT AVBL

$$
WYZ002>013-054>058-071-098>099-041300-
NORTHERN WYOMING

CITY           SKY/WX    TMP DP  RH WIND       PRES   REMARKS
JACKSON        FAIR      28  27  93 N5        30.29S WCI  23
CODY           FAIR      52  28  40 SW7       30.15S
GREYBULL       FAIR      45  33  63 CALM      30.14R
6HR MIN TEMP:  45; 6HR MAX TEMP:  58;

WORLAND        FAIR      49  36  61 SE12      30.14S
6HR MIN TEMP:  41; 6HR MAX TEMP:  56;

SHERIDAN       FAIR      39  33  79 CALM      30.11S
6HR MIN TEMP:  38; 6HR MAX TEMP:  47;

BUFFALO        FAIR      51  31  46 SW8       30.15S
6HR MIN TEMP:  48; 6HR MAX TEMP:  56;

GILLETTE       FAIR      44  37  76 S12       30.15S
6HR MIN TEMP:  42; 6HR MAX TEMP:  48;

HULETT         FAIR      41  34  75 SW3       30.17S
NEWCASTLE      FAIR      43  32  65 CALM      30.19S

$$
WYZ014>020-022>026-101>103-041300-
CENTRAL WYOMING

CITY           SKY/WX    TMP DP  RH WIND       PRES   REMARKS
BIG PINEY      FAIR      29  22  75 E3        30.30F
6HR MIN TEMP:  27; 6HR MAX TEMP:  39;

PINEDALE       FAIR      28  27  93 W6        30.31F WCI  22
DUBOIS         FAIR      34  27  75 W10       30.29S WCI  26
LANDER         FAIR      46  29  51 S5        30.21S
6HR MIN TEMP:  43; 6HR MAX TEMP:  52;

RIVERTON       FAIR      40  34  79 NW9       30.22R WCI  34
6HR MIN TEMP:  40; 6HR MAX TEMP:  52;

CASPER         FAIR      35  31  85 SW6       30.21F WCI  30
6HR MIN TEMP:  35; 6HR MAX TEMP:  45;

DOUGLAS        FAIR      34  33  96 CALM      30.22S
6HR MIN TEMP:  33; 6HR MAX TEMP:  43;


$$
WYZ021-027>030-104>119-041300-
SOUTHERN WYOMING

CITY           SKY/WX    TMP DP  RH WIND       PRES   REMARKS
EVANSTON       FAIR      43  22  43 S6        30.28S
6HR MIN TEMP:  41; 6HR MAX TEMP:  50;

KEMMERER         N/A     34  27  75 NW8       30.29S WCI  27
FORT BRIDGER   SUNNY     43  25  49 W9        30.30S
ROCK SPRINGS   FAIR      41  27  57 E5        30.28S
6HR MIN TEMP:  39; 6HR MAX TEMP:  49;

DIXON          FAIR      35  28  73 NE3       30.32S
RAWLINS        FAIR      30  26  85 CALM      30.30R
6HR MIN TEMP:  30; 6HR MAX TEMP:  39;

SARATOGA       FAIR      34  28  80 SE7       30.31S WCI  28
LARAMIE        FAIR      31  28  89 S9        30.30S WCI  23
6HR MIN TEMP:  29; 6HR MAX TEMP:  37;

CHEYENNE       FAIR      39  31  72 W10       30.26R WCI  32
6HR MIN TEMP:  39; 6HR MAX TEMP:  44;

TORRINGTON     FAIR      39  36  89 W5        30.19R
6HR MIN TEMP:  39; 6HR MAX TEMP:  51;

PINE BLUFFS    FAIR      34  32  93 W5        30.23S WCI  30

$$



USA.gov is the U.S. government's official web portal to all federal, state and local government web resources and services.